Вернуться в каталог

PRAETORIAN SDA_602

АктивенВоенныеPO
NORAD 65565·PAYLOAD·🇺🇸 United States

Запущен Sep 10, 2025 с Vandenberg Space Force Base

Loading…

Ближайшие Пролёты (ближайшие 24 часа)

TLE

СвежийSource: Space-Track

Эпоха: Sep 14, 2026, 12:40 UTC

1 65565U 25203A   26257.52824103  .00000054  00000-0  37822-4 0  9991
2 65565  81.3003 288.0730 0005200 322.5353  37.5440 13.83892898 51055

Отслеживайте PRAETORIAN SDA_602 в реальном времени с AllMySat

Download on the App Store